This is the latest recevied weather packets stored in our database for station/object KB0BS-13. If no packets are shown the sender has not sent any weather packets the latest 10 day(s).
| Time | Temp. | Humidity | Pressure | Rain* | Wind** | Luminosity | Snow |
|---|---|---|---|---|---|---|---|
| 1777447123 | 0° C | 97% | 1015 hPa | 0 mm | - | 0 W/m² | - |
| 1777446823 | 0° C | 97% | 1014.8 hPa | 0 mm | - | 0 W/m² | - |
| 1777446523 | 0° C | 97% | 1014.9 hPa | 0 mm | - | 0 W/m² | - |
| 1777446219 | 0° C | 97% | 1015.1 hPa | 0 mm | - | 0 W/m² | - |
| 1777445917 | 0.56° C | 96% | 1015 hPa | 0 mm | - | 0 W/m² | - |
| 1777445612 | 0.56° C | 96% | 1015.1 hPa | 0 mm | - | 0 W/m² | - |
| 1777445309 | 0° C | 96% | 1015 hPa | 0 mm | - | 0 W/m² | - |
| 1777445005 | 0.56° C | 96% | 1015.1 hPa | 0 mm | - | 0 W/m² | - |
| 1777444701 | 0.56° C | 95% | 1015.2 hPa | 0 mm | - | 0 W/m² | - |
| 1777444398 | 1.11° C | 95% | 1015.4 hPa | 0 mm | - | 0 W/m² | - |
| 1777444095 | 0.56° C | 96% | 1015.4 hPa | 0 mm | - | 0 W/m² | - |
| 1777443790 | 0.56° C | 95% | 1015.7 hPa | 0 mm | - | 0 W/m² | - |
| 1777443486 | 1.11° C | 95% | 1015.6 hPa | 0 mm | - | 0 W/m² | - |
| 1777443183 | 1.11° C | 94% | 1015.4 hPa | 0 mm | - | 0 W/m² | - |
| 1777442880 | 1.11° C | 94% | 1015.5 hPa | 0 mm | - | 0 W/m² | - |
| 1777442576 | 1.11° C | 94% | 1015.7 hPa | 0 mm | - | 0 W/m² | - |
| 1777442271 | 1.11° C | 94% | 1015.7 hPa | 0 mm | - | 0 W/m² | - |
| 1777441968 | 1.67° C | 93% | 1015.8 hPa | 0 mm | - | 0 W/m² | - |
| 1777441664 | 1.67° C | 93% | 1015.6 hPa | 0 mm | - | 0 W/m² | - |
| 1777441359 | 1.67° C | 93% | 1015.7 hPa | 0 mm | - | 0 W/m² | - |
| 1777441054 | 1.67° C | 93% | 1015.9 hPa | 0 mm | - | 0 W/m² | - |
| 1777440751 | 1.67° C | 93% | 1015.8 hPa | 0 mm | - | 0 W/m² | - |
| 1777440446 | 1.67° C | 93% | 1016.1 hPa | 0 mm | - | 0 W/m² | - |
| 1777440142 | 1.67° C | 94% | 1016.2 hPa | 0 mm | - | 0 W/m² | - |
| 1777439838 | 1.67° C | 93% | 1015.9 hPa | 0 mm | - | 0 W/m² | - |
* Rain latest hour (hover to see other rain measurements)
** Current wind speed in m/s (hover to see current wind gust speed)